Location: Little Canfield
(51.8500°N, 0.3000°E)
Time: 03:04:04
(UTC+00:00)

Daily predictions for brighter satellites

Satellite Brightness Start Highest point End
(mag) Time Altitude Azimuth Time Altitude Azimuth Time Altitude Azimuth
Cosmos 2360 Rocket 4.5 01:45:05 19° ENE 01:45:05 19° ENE 01:46:58 10° NE
ATLAS 3B R/B 4.1 01:45:13 32° NE 01:45:13 32° NE 01:49:38 10° E
Cosmos 1980 Rocket 4.5 01:51:19 19° NNE 01:51:19 19° NNE 01:52:58 10° NNE
CENTAUR R/B 3.8 01:53:12 47° NNE 01:53:44 47° NNE 02:01:49 10° E
ADEOS II 4.4 01:53:06 10° NNE 01:55:05 20° NE 01:55:05 20° NE
CZ-2D R/B 4.4 02:08:29 10° NNE 02:09:49 18° NNE 02:09:49 18° NNE
Cosmos 2278 Rocket 3.9 02:21:49 28° E 02:21:49 28° E 02:25:05 10° ESE
Cosmos 2333 Rocket 3.8 02:32:36 29° E 02:32:36 29° E 02:37:00 10° NE
NOSS 3-2 (A) 4.3 02:40:40 55° SE 02:40:40 55° SE 02:46:53 10° SE
COSMOS 2455 3.6 02:44:50 49° ENE 02:44:50 49° ENE 02:49:31 10° NE
SL-16 R/B 3.6 02:49:27 31° N 02:49:27 31° N 02:52:37 10° NNE
USA 267 4.0 02:42:21 10° ENE 02:48:26 42° SE 02:48:26 42° SE
Cosmos 2219 Rocket 3.3 02:52:52 39° ESE 02:52:52 39° ESE 02:57:46 10° NE
Cosmos 2322 4.4 02:54:18 51° ENE 02:54:18 51° ENE 02:58:47 10° NE
NOSS 3-2 (C) 3.9 03:02:04 68° NW 03:03:14 87° NE 03:11:32 10° SE
Cosmos 2237 Rocket 4.3 03:01:05 13° SE 03:04:30 22° E 03:08:43 10° NE
Cosmos 1709 Rocket 4.2 03:09:12 60° SE 03:10:05 67° E 03:16:25 10° NNE
Resurs 1-4 Rocket 4.0 03:06:57 10° N 03:08:44 19° NNW 03:08:44 19° NNW
Cosmos 2322 Rocket 3.4 03:18:30 31° NNW 03:18:30 31° NNW 03:22:10 10° NNE
NOSS 3-1 (A) 4.4 03:19:48 36° NNW 03:20:23 37° NNW 03:26:58 10° NE
ARIANE 5 R/B 3.7 03:16:09 10° N 03:18:54 32° N 03:18:54 32° N
COSMOS 2428 2.9 03:22:32 63° SE 03:22:51 64° ESE 03:28:27 10° NE
Meteor 2-16 Rocket 4.3 03:23:54 80° SSE 03:24:13 85° E 03:30:21 10° NNE
USA 234 3.1 03:18:23 10° SE 03:24:56 76° SSW 03:25:14 74° WSW
Cosmos 2360 Rocket 2.8 03:26:52 46° NNW 03:26:52 46° NNW 03:31:21 10° NNE
Cosmos 1025 Rocket 4.2 03:26:26 41° E 03:26:26 41° E 03:30:21 10° NNE
Cosmos 1980 Rocket 4.1 03:33:05 16° NNW 03:33:05 16° NNW 03:36:30 10° NNE
ATLAS 3B R/B 2.5 03:32:32 44° NW 03:34:54 87° NE 03:41:45 10° SE
Cosmos 1745 Rocket 4.4 03:38:29 45° NW 03:38:29 45° NW 03:43:32 10° N
ADEOS II 3.1 03:32:39 10° N 03:36:00 35° NNW 03:36:00 35° NNW
BREEZE-M R/B 3.7 03:43:31 61° S 03:43:58 64° SSE 03:52:51 10° E
Cosmos 1943 Rocket 4.3 03:40:02 10° NNW 03:44:34 24° NE 03:49:04 10° E
CENTAUR R/B 3.0 03:40:26 28° NW 03:45:10 80° SW 03:53:48 10° SE
Spot 2 4.4 03:42:07 10° NNE 03:45:57 59° E 03:45:57 59° E
Gblst 52 Del rocket 3.9 03:48:44 75° WSW 03:49:11 82° S 03:54:55 10° ESE
Lacrosse 4 Rocket 3.9 03:51:31 12° N 03:51:31 12° N 03:52:31 10° N
CZ-2D R/B 4.1 03:49:47 10° NNW 03:51:07 14° NNW 03:51:07 14° NNW
Cosmos 1536 Rocket 3.6 03:54:16 74° NNE 03:54:16 74° NNE 03:58:16 10° NNE
Cosmos 2181 Rocket 3.9 03:50:38 10° NNW 03:56:54 62° W 04:03:04 10° S
Cosmos 489 Rocket 4.3 03:53:13 10° NNW 03:59:27 74° WSW 04:05:41 10° SSE
NOSS 2-2 (C) 3.3 04:01:52 76° NNE 04:01:52 76° NNE 04:06:02 10° NE
ATLAS 2AS CENTAUR R/B 3.2 03:59:16 27° SSW 04:04:05 74° SE 04:12:05 10° NE
Cosmos 2278 Rocket 2.2 04:03:51 55° W 04:04:19 57° WSW 04:09:50 10° S
Celestis-02/Orion 38 4.5 03:59:19 10° SSE 04:04:32 82° WSW 04:09:52 10° NNW
Cosmos 2297 4.2 04:00:28 10° NNW 04:06:12 62° NE 04:11:53 10° SE
IDEFIX/ARIANE 42P 2.5 04:02:01 10° NNE 04:07:19 89° WNW 04:10:12 28° SSW
Cosmos 2251 Rocket 4.0 04:14:44 41° WNW 04:15:01 41° NW 04:20:07 10° NNE
ERBS 2.6 04:15:31 61° ESE 04:15:31 61° ESE 04:18:39 10° ENE
Cosmos 2333 Rocket 2.2 04:14:39 46° WSW 04:16:06 61° NW 04:21:47 10° NNE
Cosmos 44 Rocket 3.4 04:16:15 25° NNW 04:18:57 70° NE 04:23:38 10° SE
ATLAS 5 CENTAUR R/B 4.2 04:15:30 21° NW 04:18:58 53° NNE 04:36:36 10° ESE
CZ-2C R/B 3.2 04:15:35 10° NNE 04:20:44 57° E 04:25:48 10° S
Cosmos 1606 Rocket 3.6 04:17:15 10° N 04:21:35 74° ENE 04:25:55 10° SSE
H-2A R/B 2.4 04:22:45 10° NNE 04:26:55 88° ESE 04:30:25 15° SSW
GP-B 4.4 04:22:46 10° SSE 04:26:57 42° E 04:31:09 10° N
COSMOS 2455 3.4 04:27:59 33° WNW 04:29:49 41° NW 04:35:31 10° NNE
GENESIS II 4.4 04:31:00 49° WNW 04:31:34 54° NW 04:35:38 10° NE
USA 267 3.2 04:25:22 10° ENE 04:31:57 85° NNW 04:35:47 28° WSW
SL-16 R/B 3.9 04:31:19 16° NW 04:32:37 17° NNW 04:36:14 10° NNE
OPS 6432 4.5 04:33:50 55° WNW 04:34:27 69° SW 04:38:42 10° SE
Cosmos 2344 4.4 04:26:22 10° NW 04:35:40 86° NE 04:48:38 10° SE
Cosmos 2219 Rocket 2.5 04:34:37 34° W 04:36:31 46° NW 04:41:55 10° NNE
Meteor 1-21 4.3 04:33:08 20° SW 04:36:54 56° WNW 04:42:30 10° N
NOSS 2-2 (E) 3.8 04:36:06 39° WNW 04:36:56 45° NNW 04:41:30 10° NE
Aureole 1 Rocket 3.9 04:37:29 33° W 04:39:00 40° WNW 04:43:17 10° NNE
Cosmos 407 Rocket 3.3 04:36:04 16° SSW 04:40:14 81° WNW 04:45:24 10° NNE
Cosmos 1190 Rocket 4.0 04:35:15 11° SSW 04:40:24 89° WNW 04:45:44 10° NNE
Meteor 2-10 4.2 04:35:14 10° N 04:40:25 73° ENE 04:45:45 10° SSE
BREEZE-M DEB (TANK) 3.9 04:47:03 17° S 04:47:03 17° S 04:48:04 10° SSE
Cosmos 2237 Rocket 2.1 04:42:59 14° SW 04:47:56 78° WNW 04:53:42 10° NNE
Okean 1-7 Rocket 4.1 04:44:40 10° S 04:49:05 64° E 04:53:34 10° NNE
Cosmos 2327 Rocket 4.4 04:44:49 10° SSW 04:51:03 77° WNW 04:57:13 10° N
Cosmos 1953 2.5 04:47:30 10° NNW 04:51:23 46° W 04:55:13 10° SSW
CZ-4B R/B 2.9 04:47:44 10° NNE 04:51:50 82° ESE 04:55:41 10° SSW
Cosmos 2154 Rocket 3.9 04:46:49 10° S 04:53:01 88° W 04:59:17 10° N
Cosmos 1908 3.9 04:51:09 10° N 04:54:57 56° ENE 04:58:43 10° SSE
COSMO-SKYMED 1 2.7 04:51:01 10° SSE 04:55:21 75° ENE 04:59:43 10° NNW
Cosmos 2228 3.0 04:54:00 10° NNW 04:58:11 56° W 05:02:20 10° S
ARIANE 5 R/B 4.3 04:57:05 10° NNW 04:59:14 13° NW 04:59:14 13° NW
Cosmos 2369 Rocket 3.1 04:53:49 10° NNW 04:59:17 50° NE 05:04:43 10° SE
ADEOS 4.1 04:55:10 10° N 05:00:00 39° WNW 05:03:54 15° SW
Cosmos 1610 Rocket 4.5 04:53:56 10° SSW 05:00:13 74° WNW 05:06:38 10° N
Cosmos 1726 Rocket 3.5 04:57:49 10° NNW 05:02:03 55° W 05:06:16 10° S
PSLV R/B 4.4 04:58:44 10° N 05:02:24 29° WNW 05:03:52 23° W
Cosmos 2184 Rocket 4.1 04:56:30 10° SSW 05:02:33 52° WNW 05:08:44 10° N
Cosmos 2322 Rocket 4.1 05:00:19 11° NW 05:02:44 14° NNW 05:05:39 10° N
NOSS 3 (A) 4.5 05:01:37 32° WSW 05:02:46 70° NW 05:06:06 10° NE
Cosmos 1025 Rocket 4.0 05:03:22 24° W 05:04:05 25° WNW 05:07:39 10° N
Cosmos 1980 3.8 05:00:31 13° SW 05:05:32 58° NW 05:11:09 10° NNE
NOSS 0 Rocket 4.0 05:00:36 14° SW 05:05:53 57° NW 05:12:02 10° NNE
Meteor 1-31 Rocket 2.6 05:02:14 10° N 05:06:01 67° WNW 05:09:47 10° SSW
BREEZE-M DEB (TANK) 2.1 05:03:51 22° WSW 05:06:09 59° S 05:08:26 10° E
Nadezhda 3 Rocket 4.1 05:01:18 10° NNW 05:07:31 56° W 05:13:41 10° SSW
COSMOS 2428 3.5 05:04:34 20° W 05:07:31 32° NW 05:12:37 10° NNE
Cosmos 1726 2.0 05:04:56 10° NNW 05:08:36 68° W 05:12:14 10° S
USA 234 4.1 05:03:09 10° S 05:08:39 28° SW 05:12:36 16° W
MSX 4.1 05:04:41 10° N 05:10:10 48° WNW 05:15:38 10° SW
Cosmos 2360 Rocket 3.9 05:08:39 14° WNW 05:11:07 18° NNW 05:14:52 10° NNE
Cosmos 1707 3.2 05:07:47 10° SW 05:11:28 38° WNW 05:15:10 10° N
Meteor 1-4 Rocket 2.6 05:08:06 10° SSW 05:11:30 48° WNW 05:14:53 10° N
NOSS 3-4 (A) 3.5 05:08:31 11° SW 05:14:21 74° NW 05:20:56 10° NE
NOSS 3-4 (C) 3.5 05:08:32 11° SW 05:14:26 75° NW 05:21:02 10° NE
NOSS 2-2 (D) 4.4 05:13:39 19° WNW 05:15:51 33° NNW 05:20:12 10° NE
ADEOS II 4.0 05:15:06 10° NNW 05:16:12 11° NW 05:16:56 10° NW
Cosmos 1954 Rocket 3.9 05:12:30 10° SSW 05:17:45 78° WNW 05:22:59 10° NNE
ASTEX 1 4.3 05:14:02 10° SSE 05:18:45 51° ENE 05:23:31 10° N
Helios 1A Rocket 3.9 05:15:28 10° NNE 05:19:33 52° ESE 05:23:37 10° S
Cosmos 2341 Rocket 4.0 05:13:46 10° S 05:20:01 89° E 05:26:16 10° N
Okean O Rocket 2.7 05:16:03 10° NNE 05:20:21 48° E 05:24:35 10° S
Cosmos 1140 Rocket 3.5 05:15:39 10° SW 05:20:46 58° WNW 05:25:53 10° NNE
Cosmos 614 Rocket 4.4 05:16:07 10° SW 05:21:05 43° WNW 05:26:04 10° NNE
Cosmos 1484 Rocket 2.7 05:18:26 10° NNE 05:22:14 87° ESE 05:26:05 10° SSW
PAYLOAD A 4.3 05:18:27 10° N 05:22:56 40° WNW 05:27:33 10° SW
Cosmos 389 Rocket 3.4 05:21:26 15° WSW 05:23:36 26° WNW 05:26:35 10° N
Cosmos 2058 Rocket 3.2 05:19:39 10° NNW 05:23:56 50° W 05:28:14 10° S
ATLAS 3B R/B 3.6 05:19:51 11° WNW 05:24:54 26° WSW 05:30:21 10° SSW
Cosmos 468 Rocket 3.9 05:21:17 10° NNW 05:26:29 75° WSW 05:31:35 10° SSE
RESURS DK-1 2.3 05:23:24 10° SSW 05:27:33 84° WNW 05:31:43 10° NNE
Cosmos 1943 Rocket 2.3 05:23:27 10° NNW 05:29:10 84° ENE 05:34:52 10° SSE
Cosmos 1674 2.6 05:26:17 10° S 05:30:00 89° W 05:33:46 10° N
Iridium 51 4.1 05:28:09 10° N 05:32:03 80° W 05:35:38 10° S
ALOS 2.8 05:28:22 10° NNE 05:33:03 66° ESE 05:37:41 10° S
FENGYUN 3A 4.3 05:28:01 10° NNE 05:33:28 63° ESE 05:38:51 10° S
Cosmos 1570 Rocket 4.1 05:29:07 10° NNW 05:34:31 88° WSW 05:39:51 10° SSE
MOS 1-B 4.4 05:29:10 10° NNE 05:35:02 84° WNW 05:40:51 10° SSW
CENTAUR R/B 4.0 05:28:48 10° WNW 05:35:11 26° WSW 05:41:54 10° SSW
METEOR-M 4.5 05:32:22 10° NNE 05:37:44 72° ESE 05:43:04 10° S
Meteor 1-24 Rocket 4.1 05:33:05 10° S 05:38:52 74° E 05:44:52 10° NNE
SL-16 R/B 2.2 05:36:16 10° SW 05:41:56 77° WNW 05:47:39 10° NNE
SJ-12 3.9 05:37:59 10° NNE 05:42:06 77° WNW 05:46:12 10° SSW
SKYMED 2 4.0 05:39:26 10° SSW 05:43:31 39° W 05:47:37 10° NNW
Cosmos 841 Rocket 3.7 05:40:17 10° NNW 05:45:37 79° ENE 05:50:52 10° SSE
SL-8 Rocket 4.0 05:39:33 10° SSW 05:45:44 83° W 05:51:57 10° N
IDEFIX/ARIANE 42P 4.0 05:42:41 10° N 05:46:14 19° NW 05:49:47 10° W
Cosmos 2208 Rocket 4.0 05:41:43 10° NNW 05:46:57 82° WSW 05:52:13 10° SSE
Cosmos 1300 2.9 05:46:37 10° N 05:50:28 78° E 05:54:16 10° SSE
Cosmos 1892 Rocket 4.2 05:47:22 10° SW 05:51:27 35° WNW 05:55:30 10° N
ERBS 3.0 05:48:36 10° W 05:51:50 40° NNW 05:55:04 10° ENE
Cosmos 2366 rocket 4.1 05:48:19 10° S 05:54:41 89° WNW 06:01:06 10° N
ATLAS 2AS CENTAUR R/B 3.4 05:47:52 10° WSW 05:55:41 49° NNW 06:03:19 10° NE
Cosmos 1626 3.1 05:52:38 10° S 05:56:15 53° E 05:59:54 10° NNE
Cosmos 1741 Rocket 4.1 05:52:50 10° SSW 05:58:11 85° WNW 06:03:33 10° NNE
CZ-2C R/B 3.5 05:54:18 10° N 05:58:39 28° WNW 06:02:59 10° WSW
SL-14 R/B 3.7 05:55:11 10° S 05:59:06 70° E 06:02:59 10° NNE
Cosmos 44 Rocket 4.4 05:56:22 10° WNW 06:00:03 23° WSW 06:03:41 10° SSW
ADEOS Rocket 4.4 05:53:56 10° SE 06:01:00 55° ENE 06:08:31 10° N
Cosmos 2333 Rocket 3.7 05:57:33 10° WNW 06:01:36 19° NNW 06:05:40 10° NNE
